Flag for Australia Weather past 2 weeks in Ballarat, Victoria, Australia

Now
49 °F

Cool.


Feels Like: 45 °F
Forecast: 42 / 52 °F
Wind: 8 mph from West

Location: Sheoaks Aws

Current Time: Apr 26, 2015 at 11:06:24 PM

Latest Report: Apr 26, 2015 at 9:00 PM


Visibility: N/A

Pressure: 30.16 "Hg

Humidity: 91%

Dew point: 46 °F

Location of BallaratLocation

Historic Weather in Ballarat — Graph

°F

Ballarat temperature yesterday

Maximum temperature yesterday: 54 °F (at 2:00 PM)
Minimum temperature yesterday: 49 °F (at 8:00 AM)
Average temperature yesterday: 51 °F

Past Weeks' High & Low Weather Summary

 TemperatureHumidityPressure
High78 °F (Apr 15, 3:00 PM)98% (Apr 23, 2:00 AM)30.64 "Hg (Apr 23, 2:00 AM)
Low35 °F (Apr 13, 5:00 AM)41% (Apr 14, 3:00 PM)29.62 "Hg (Apr 24, 3:00 PM)
Average54 °F80%30.14 "Hg
* Reported Apr 11 9:00 PM — Apr 26 9:00 PM, Ballarat, Weather by CustomWeather, © 2015

Note: Actual official high and low records may vary slightly from our data, if they occured in-between our weather recording intervals... More about our weather records

Advertising

Ballarat weather history for previous 24 hours

 ConditionsComfort  
Time TempWeatherWind HumidityBarometerVisibility
9:00 PM
Sun, Apr 26
49 °FCool.8 mph91%30.16 "HgN/A
8:00 PM50 °FCool.6 mph82%30.16 "HgN/A
6:00 PM52 °FCool.5 mph75%30.14 "HgN/A
5:00 PM52 °FCool.10 mph70%30.12 "HgN/A
3:00 PM54 °FCool.10 mph69%30.10 "HgN/A
2:00 PM55 °FCool.12 mph65%30.08 "HgN/A
12:00 PM55 °FCool.13 mph66%30.09 "HgN/A
11:00 AM52 °FCool.9 mph81%30.10 "HgN/A
9:00 AM49 °FCool.8 mph93%30.09 "HgN/A
8:00 AM48 °FCool.8 mph96%30.07 "HgN/A
6:00 AM46 °FCool.7 mph95%30.03 "HgN/A
5:00 AM47 °FCool.8 mph95%30.02 "HgN/A
3:00 AM48 °FCool.7 mph89%30.01 "HgN/A
2:00 AM49 °FCool.7 mph86%30.00 "HgN/A
12:00 AM50 °FCool.7 mph84%29.98 "HgN/A
11:00 PM
Sat, Apr 25
50 °FCool.7 mph85%29.98 "HgN/A
Weather by CustomWeather, © 2015

See weather overviewHow to use our weather pages